Gainesville, GA

11:19 PM EDT on August 31, 2016 (GMT -0400)
Gilmer Memorial

Weather History for KGVL - February, 2014

Change the Weather History Date:

Monday, February 10, 2014

  Actual Average Record
Temperature  
Mean Temperature 43 °F 45 °F  
Max Temperature 48 °F 54 °F 76 °F (1938)
Min Temperature 38 °F 35 °F 9 °F (1971)
Degree Days  
Heating Degree Days 22 21  
Month to date heating degree days 211 214  
Since 1 July heating degree days 2334 2132  
Moisture  
Dew Point 37 °F    
Average Humidity 82    
Maximum Humidity 92    
Minimum Humidity 71    
Precipitation  
Precipitation 0.01 in 0.15 in 1.55 in (1990)
Month to date precipitation 0.98 1.57  
Year to date precipitation 3.94 6.60  
Snow  
Snow 0.00 in - - ()
Month to date snowfall 0.0  
Since 1 July snowfall T  
Snow Depth 0.00 in    
Sea Level Pressure  
Sea Level Pressure 30.10 in    
Wind  
Wind Speed 4 mph (NE)    
Max Wind Speed 10 mph    
Max Gust Speed 18 mph    
Visibility 6 miles    
Events Rain    
T = Trace of Precipitation, MM = Missing Value Source: NWS Daily Summary

Daily Weather History Graph

Daily Weather History Graph

Search for Another Location

Airport or City:

Trip Planner

Search our weather history database for the weather conditions in past years. The results will help you decide how hot, cold, wet, or windy it might be!

Date:

Astronomy

Feb. 10, 2014 Rise Set
Actual Time 7:25 AM EST 6:14 PM EST
Civil Twilight 6:59 AM EST 6:40 PM EST
Nautical Twilight 6:29 AM EST 7:09 PM EST
Astronomical Twilight 6:00 AM EST 7:39 PM EST
Moon 2:46 PM EST (2/10) 4:13 AM EST (2/10)
Length of Visible Light 11h 40m
Length of Day
10h 49m
Waxing Gibbous, 84% of the Moon is Illuminated
Feb 10
Waxing Gibbous
Feb 14
Full
Feb 22
Last Quarter
Mar 1
New
Mar 8
First Quarter

Hourly Weather History & Observations

Time (EST) Temp. Windchill Dew Point Humidity Pressure Visibility Wind Dir Wind Speed Gust Speed Precip Events Conditions
12:53 AM 42.1 °F 40.2 °F 35.1 °F 76% 30.06 in 10.0 mi West 3.5 mph - N/A   Clear
1:53 AM 39.9 °F 35.8 °F 35.1 °F 83% 30.05 in 10.0 mi West 5.8 mph - N/A   Clear
2:53 AM 37.9 °F 33.5 °F 34.0 °F 86% 30.07 in 9.0 mi West 5.8 mph - N/A   Clear
3:53 AM 39.0 °F 34.8 °F 35.1 °F 86% 30.05 in 9.0 mi SW 5.8 mph - N/A   Scattered Clouds
4:53 AM 39.9 °F 35.8 °F 36.0 °F 86% 30.05 in 9.0 mi WSW 5.8 mph - N/A   Overcast
5:53 AM 41.0 °F - 36.0 °F 82% 30.05 in 10.0 mi Calm Calm - N/A   Overcast
6:53 AM 42.1 °F 40.2 °F 36.0 °F 79% 30.06 in 10.0 mi WNW 3.5 mph - N/A   Overcast
7:53 AM 42.1 °F 40.2 °F 36.0 °F 79% 30.06 in 9.0 mi West 3.5 mph - N/A   Overcast
8:20 AM 42.8 °F 40.1 °F 35.6 °F 76% 30.08 in 8.0 mi WSW 4.6 mph - N/A   Overcast
8:53 AM 43.0 °F 39.5 °F 37.0 °F 80% 30.09 in 9.0 mi WSW 5.8 mph - N/A   Overcast
9:53 AM 43.0 °F 40.3 °F 37.0 °F 80% 30.10 in 9.0 mi West 4.6 mph - N/A   Overcast
10:53 AM 44.1 °F 41.5 °F 37.0 °F 76% 30.11 in 9.0 mi WNW 4.6 mph - N/A   Overcast
11:53 AM 44.1 °F 40.8 °F 37.9 °F 79% 30.12 in 8.0 mi WNW 5.8 mph - 0.00 in   Overcast
12:53 PM 44.1 °F - 37.9 °F 79% 30.10 in 9.0 mi Calm Calm - N/A   Overcast
1:53 PM 46.0 °F - 39.0 °F 76% 30.07 in 10.0 mi Calm Calm - N/A   Overcast
2:39 PM 46.4 °F - 39.2 °F 76% 30.06 in 10.0 mi Calm Calm - N/A   Overcast
2:53 PM 48.0 °F - 39.0 °F 71% 30.07 in 10.0 mi WNW 3.5 mph - N/A   Overcast
3:53 PM 48.0 °F - 39.0 °F 71% 30.06 in 10.0 mi Calm Calm - 0.00 in   Overcast
4:16 PM 46.4 °F 43.5 °F 39.2 °F 76% 30.06 in 6.0 mi ENE 5.8 mph - 0.00 in   Haze
4:24 PM 46.4 °F 43.5 °F 39.2 °F 76% 30.06 in 6.0 mi East 5.8 mph - 0.00 in   Haze
4:31 PM 44.6 °F 40.7 °F 39.2 °F 81% 30.06 in 5.0 mi East 6.9 mph - 0.00 in   Haze
4:42 PM 44.6 °F 42.2 °F 39.2 °F 81% 30.06 in 5.0 mi ENE 4.6 mph - 0.00 in   Haze
4:53 PM 44.1 °F 41.5 °F 39.9 °F 85% 30.08 in 5.0 mi East 4.6 mph - 0.00 in   Overcast
5:07 PM 44.6 °F 41.4 °F 39.2 °F 81% 30.07 in 4.0 mi East 5.8 mph - N/A   Overcast
5:22 PM 44.6 °F 41.4 °F 39.2 °F 81% 30.07 in 4.0 mi ENE 5.8 mph - N/A   Haze
5:40 PM 44.6 °F 41.4 °F 39.2 °F 81% 30.08 in 3.0 mi East 5.8 mph - N/A   Haze
5:51 PM 42.8 °F 41.1 °F 39.2 °F 87% 30.09 in 3.0 mi East 3.5 mph - N/A   Overcast
5:53 PM 43.0 °F 41.3 °F 39.0 °F 86% 30.09 in 3.0 mi East 3.5 mph - N/A   Overcast
6:07 PM 44.6 °F - 39.2 °F 81% 30.09 in 4.0 mi Calm Calm - N/A   Haze
6:44 PM 42.8 °F 39.3 °F 37.4 °F 81% 30.11 in 9.0 mi NW 5.8 mph - N/A   Overcast
6:53 PM 43.0 °F 40.3 °F 37.0 °F 80% 30.13 in 10.0 mi West 4.6 mph - N/A   Overcast
7:53 PM 41.0 °F - 35.1 °F 79% 30.13 in 9.0 mi Calm Calm - 0.00 in   Overcast
8:53 PM 39.9 °F - 36.0 °F 86% 30.14 in 4.0 mi Calm Calm - N/A   Overcast
9:06 PM 39.2 °F - 35.6 °F 87% 30.15 in 2.5 mi Calm Calm - 0.00 in Rain Light Rain
9:13 PM 39.2 °F - 35.6 °F 87% 30.14 in 3.0 mi Calm Calm - 0.00 in   Overcast
9:23 PM 39.2 °F - 35.6 °F 87% 30.15 in 3.0 mi Calm Calm - 0.00 in Rain Light Rain
9:38 PM 39.2 °F - 35.6 °F 87% 30.15 in 2.0 mi Calm Calm - 0.00 in   Overcast
9:48 PM 39.2 °F - 37.4 °F 93% 30.15 in 1.8 mi Calm Calm - 0.00 in   Overcast
9:53 PM 39.9 °F - 37.0 °F 89% 30.15 in 1.8 mi Calm Calm - 0.00 in   Overcast
10:00 PM 39.2 °F 37.0 °F 37.4 °F 93% 30.15 in 1.5 mi ESE 3.5 mph - N/A   Overcast
10:34 PM 39.2 °F 33.0 °F 37.4 °F 93% 30.15 in 1.8 mi East 9.2 mph - 0.01 in   Overcast
10:53 PM 39.9 °F 35.1 °F 37.9 °F 93% 30.16 in 1.8 mi ENE 6.9 mph - 0.01 in   Overcast
11:03 PM 39.2 °F 33.0 °F 37.4 °F 93% 30.15 in 1.5 mi ENE 9.2 mph - N/A   Overcast
11:13 PM 39.2 °F 33.6 °F 37.4 °F 93% 30.15 in 1.8 mi ENE 8.1 mph - N/A   Overcast
11:38 PM 39.2 °F 33.0 °F 37.4 °F 93% 30.15 in 2.0 mi ENE 9.2 mph - N/A   Overcast
11:46 PM 39.2 °F 33.0 °F 37.4 °F 93% 30.15 in 2.5 mi ENE 9.2 mph - N/A   Overcast
11:53 PM 39.0 °F 33.4 °F 37.0 °F 93% 30.16 in 2.5 mi East 8.1 mph - N/A   Overcast